Hourly Data Report for September 10, 2018

SHEARWATER RCS
NOVA SCOTIA
Current Station Operator: ECCC - MSC

44°37'47.000" N
63°30'48.000" W
24.00 m
8205092
71264
AAW

Download Data

Hourly Data (September 2018)
Hourly Data Report for September 10, 2018
TIME Temp Definition
°C
Dew Point Definition
°C
Rel Hum Definition
%
Wind Dir Definition
10's deg

Wind Spd Definition
km/h
Visibility Definition
km
Stn Press Definition
kPa
Hmdx Definition


Wind Chill Definition


Weather Definition


00:00 11.7 6.9 72 4 12   102.64     LegendNANA
01:00 10.1 6.6 79 32 4   102.68     LegendNANA
02:00 9.6 7.0 84 36 7   102.68     LegendNANA
03:00 9.7 6.5 81 1 9   102.68     LegendNANA
04:00 9.5 6.2 80 1 8   102.73     LegendNANA
05:00 10.0 6.2 77 3 8   102.80     LegendNANA
06:00 9.8 4.9 72 2 9   102.86     LegendNANA
07:00 11.4 5.3 66 4 9   102.91     LegendNANA
08:00 13.4 5.9 61 4 12   102.93     LegendNANA
09:00 15.0 5.3 52 6 19   102.92     LegendNANA
10:00 16.2 5.2 48 7 12   102.96     LegendNANA
11:00 17.0 5.5 47 9 12   102.96     LegendNANA
12:00 17.5 5.4 45 11 13   102.97     LegendNANA
13:00 17.7 4.8 43 12 12   102.95     LegendNANA
14:00 18.3 6.5 46 14 11   102.93     LegendNANA
15:00 17.9 7.0 49 16 16   102.90     LegendNANA
16:00 17.4 7.3 52 15 15   102.91     LegendNANA
17:00 17.2 7.3 52 13 9   102.90     LegendNANA
18:00 16.2 8.3 59 12 6   102.91     LegendNANA
19:00 13.9 7.9 67 10 6   102.92     LegendNANA
20:00 13.4 7.9 69 8 7   102.94     LegendNANA
21:00 13.0 7.7 71 7 8   102.94     LegendNANA
22:00 12.7 8.3 74 5 8   102.96     LegendNANA
23:00 12.7 9.6 81 5 9   102.91     LegendNANA

Notes on Data Quality.

Legend

  • E = Estimated
  • M = Missing
  • NA = Not Available*
  • [empty] = Indicates an unobserved value
Date modified: